User: anonymous   Login
Location: Unspecified
(0.0000°N, 0.0000°E)
Time: 17:25:17
(UTC+00:00)
Language:

NOAA 18 - Orbit

View from above orbital plane
View from above orbital plane
View from above satellite
View from above satellite

Ground track
Ground track

The orbit data is extracted from the following two-line orbital elements,

1 28654U 05018A   17296.49331770  .00000021  00000-0  36418-4 0  9997
2 28654  99.1739 321.7923 0015232  73.5374 286.7469 14.12353841640378
Epoch (UTC): 23 October 2017 11:50:22
Eccentricity: 0.0015232
inclination: 99.1739°
perigee height: 840 km
apogee height: 862 km
right ascension of ascending node: 321.7923°
argument of perigee: 73.5374°
revolutions per day: 14.12353841
mean anomaly at epoch: 286.7469°
orbit number at epoch: 64037

The dashed part of the orbit path shows where the satellite is in the earth's shadow,  

DLR